www.pogodaiklimat.ru

Погода и климат >> Архив погоды >> Финляндия >> Пюхя


ПОГОДА в Пюхе

  • Прогноз погоды в Пюхе
  • Монитор погоды в Пюхе

АРХИВ ПОГОДЫ в Пюхе

Время (UTC), дата Ветер
(напр.,м/с)
 
Видим.   Явления Облачность Т
(С)
Тd
(С)
f
(%)
Тe
(С)
Тes
(С)
Комфортность P
(гПа)
Po
(гПа)
Тmin
(С)
Tmax
(С)
R
(мм)
R24
(мм)
S
(см)
23 16.01 В 6 н/о н/о -12.6 -13.6 92 -22 -22 990.3 929.0
22 16.01 В 3 н/о н/о -12.3 -13.3 92 -18 -18 990.5 929.2
00 17.01 В 5-5
{6}
н/о н/о -12.4 -13.3 93 -20 -20 989.9 928.7
01 17.01 В 4-5
{5}
н/о н/о -12.7 -13.7 92 -20 -20 989.9 928.6
02 17.01 В 3 н/о н/о -12.3 -13.3 92 -18 -18 989.6 928.4
03 17.01 В 3-4
{4}
н/о н/о -12.5 -13.5 92 -19 -19 989.3 928.1
05 17.01 В 1 н/о н/о -12.6 -13.6 92 -15 -15 988.4 927.3
04 17.01 В 2 н/о н/о -12.4 -13.4 92 -17 -17 988.8 927.6
06 17.01 В 3-5
{5}
н/о н/о -12.6 -13.6 92 -19 -19 988.3 927.1 -12.7 -12.2
07 17.01 В 5 н/о н/о -12.8 -13.8 92 -21 -21 988.4 927.2
08 17.01 В 5 н/о н/о -12.7 -13.7 92 -21 -21 988.5 927.3
09 17.01 В 4-5
{6}
н/о н/о -12.6 -13.7 91 -20 -20 988.4 927.2
11 17.01 В 2 н/о н/о -12.6 -13.6 92 -17 -17 988.2 927.1
10 17.01 В 4 н/о н/о -12.4 -13.4 92 -20 -20 988.4 927.3
12 17.01 В 2-2
{2}
н/о н/о -12.5 -13.5 92 -17 -17 988.0 926.9
13 17.01 СВ 1 н/о н/о -12.4 -13.4 92 -15 -15 987.8 926.7
14 17.01 СВ 1 н/о н/о -12.4 -13.4 92 -15 -15 987.9 926.8
15 17.01 СВ 2-2
{2}
н/о н/о -12.1 -13.1 92 -17 -17 988.2 927.1
17 17.01 СВ 1 н/о н/о -12.3 -13.3 92 -15 -15 988.3 927.2
16 17.01 В 2 н/о н/о -12.2 -13.2 92 -17 -17 988.3 927.2
18 17.01 В 3-4
{5}
н/о н/о -12.1 -13.1 92 -18 -18 988.6 927.5 -12.8 -12.0
19 17.01 В 7 н/о н/о -12.0 -12.9 93 -21 -21 988.9 927.9
20 17.01 В 7 н/о н/о -11.5 -12.4 93 -21 -21 989.1 928.1
21 17.01 В 9-10
{11}
н/о н/о -10.7 -11.5 94 -21 -21 989.5 928.6
23 17.01 В 3 н/о н/о -11.4 -12.3 93 -17 -17 990.4 929.3
22 17.01 В 6 н/о н/о -10.6 -11.4 94 -19 -19 989.8 929.0
00 18.01 СВ 2-4
{5}
н/о н/о -11.1 -11.9 94 -16 -16 990.8 929.8
01 18.01 СВ 3 н/о н/о -11.3 -12.2 93 -17 -17 991.1 930.1
02 18.01 СВ 6 н/о н/о -11.1 -12.0 93 -20 -20 991.4 930.4
03 18.01 С 5-8
{9}
н/о н/о -10.9 -11.7 94 -19 -19 991.9 930.9
05 18.01 С 6 н/о н/о -11.3 -12.2 93 -20 -20 992.7 931.6
04 18.01 С 4 н/о н/о -11.1 -12.0 93 -18 -18 992.4 931.3
06 18.01 С 6-7
{8}
н/о н/о -10.8 -11.7 93 -19 -19 992.9 931.9 -12.1 -10.3
07 18.01 С 4 н/о н/о -10.9 -11.8 93 -18 -18 993.4 932.3
08 18.01 С 4 н/о н/о -10.9 -11.8 93 -18 -18 994.1 932.9
09 18.01 СВ 4-5
{5}
н/о н/о -10.4 -11.1 95 -17 -17 994.5 933.5
11 18.01 СВ 1 н/о н/о -10.2 -10.9 95 -13 -13 995.2 934.2
10 18.01 СВ 1 н/о н/о -10.5 -11.4 93 -13 -13 994.9 933.8
12 18.01 В 2-3
{4}
н/о н/о -9.7 -10.5 94 -14 -14 995.6 934.6
13 18.01 В 2 н/о н/о -9.6 -10.3 95 -14 -14 995.9 935.0
14 18.01 СВ 2 н/о н/о -10.1 -10.9 94 -15 -15 996.5 935.4
15 18.01 В 2-3
{4}
н/о н/о -9.7 -10.4 95 -14 -14 996.9 935.8
17 18.01 В 7 н/о н/о -8.9 -9.5 95 -18 -18 997.1 936.3
16 18.01 В 3 н/о н/о -9.6 -10.3 95 -16 -16 997.1 936.1
18 18.01 В 4-4
{8}
н/о н/о -9.9 -10.6 95 -17 -17 997.8 936.6 -11.3 -8.8
19 18.01 В 5 н/о н/о -10.0 -10.7 95 -18 -18 997.9 936.8
20 18.01 В 6 н/о н/о -10.4 -11.2 94 -19 -19 998.4 937.1
21 18.01 ЮВ 7-7
{7}
н/о н/о -10.2 -11.0 94 -19 -19 998.7 937.4
23 18.01 В 8 н/о н/о -10.9 -11.7 94 -21 -21 998.9 937.5
22 18.01 В 7 н/о н/о -11.0 -11.8 94 -20 -20 998.9 937.4
00 19.01 ЮВ 7-7
{8}
н/о н/о -10.9 -11.7 94 -20 -20 999.1 937.7
01 19.01 ЮВ 6 н/о н/о -11.1 -11.9 94 -20 -20 999.2 937.7
02 19.01 В 7 н/о н/о -11.7 -12.6 93 -21 -21 999.2 937.6
03 19.01 В 7-8
{8}
н/о н/о -11.8 -12.8 92 -21 -21 999.2 937.5
05 19.01 В 6 н/о н/о -12.7 -13.7 92 -22 -22 999.3 937.4
04 19.01 В 7 н/о н/о -12.0 -13.0 92 -21 -21 999.2 937.4
06 19.01 В 4-4
{6}
н/о н/о -12.9 -14.0 91 -20 -20 999.3 937.3 -12.9 -9.5
07 19.01 В 4 н/о н/о -12.9 -14.0 91 -20 -20 999.4 937.5
08 19.01 В 4 н/о н/о -12.9 -13.9 92 -20 -20 999.6 937.7
09 19.01 В 4-5
{5}
н/о н/о -13.2 -14.3 91 -21 -21 999.9 937.9
11 19.01 В 3 н/о н/о -14.1 -15.3 91 -21 -21 1000.5 938.2
10 19.01 В 4 н/о н/о -13.8 -15.0 91 -21 -21 1000.3 938.1
12 19.01 В 3-3
{4}
н/о н/о -13.8 -15.0 91 -20 -20 1000.5 938.3
13 19.01 В 3 н/о н/о -14.8 -16.1 90 -21 -21 1000.9 938.4
14 19.01 В 3 н/о н/о -14.7 -15.9 91 -21 -21 1000.9 938.5
15 19.01 В 4-5
{5}
н/о н/о -14.6 -15.8 91 -22 -22 1001.2 938.7
17 19.01 СВ 1 н/о н/о -14.2 -15.4 91 -17 -17 1001.6 939.2
16 19.01 В 3 н/о н/о -14.5 -15.8 90 -21 -21 1001.4 939.0
18 19.01 С 4-5
{5}
н/о н/о -14.4 -15.7 90 -22 -22 1001.8 939.4 -14.9 -12.8
19 19.01 С 6 н/о н/о -14.8 -16.1 90 -24 -24 1002.1 939.6
20 19.01 С 7 н/о н/о -16.1 -17.5 89 -27 -27 1002.9 940.0
21 19.01 С 7-8
{9}
н/о н/о -15.9 -17.3 89 -26 -26 1003.3 940.4
23 19.01 С 9 н/о н/о -17.0 -18.5 88 -29 -29 1003.7 940.6
22 19.01 С 8 н/о н/о -15.7 -17.0 90 -27 -27 1003.3 940.5
00 20.01 -13
{13}
н/о н/о -18.9 -20.6 86 1004.6 940.9
01 20.01 С 9 н/о н/о -18.7 -20.4 86 -31 -31 опасность
обморожения
1004.7 941.1
02 20.01 С 11 н/о н/о -19.4 -21.1 86 -33 -33 опасность
обморожения
1004.9 941.1
03 20.01 С 12-14
{15}
н/о н/о -17.9 -19.5 87 -32 -32 опасность
обморожения
1004.9 941.5
05 20.01 С 10 н/о н/о -17.6 -19.2 87 -30 -30 1005.6 942.2
04 20.01 С 9 н/о н/о -17.4 -19.0 87 -30 -30 1005.2 941.8
06 20.01 С 12-12
{12}
н/о н/о -17.6 -19.2 87 -31 -31 опасность
обморожения
1005.8 942.4 -19.5 -14.3
07 20.01 С 12 н/о н/о -17.5 -19.0 88 -31 -31 опасность
обморожения
1006.0 942.6
08 20.01 С 10 н/о н/о -17.8 -19.4 87 -31 -31 опасность
обморожения
1006.6 943.0
09 20.01 С 10-11
{12}
н/о н/о -17.7 -19.3 87 -31 -31 опасность
обморожения
1007.3 943.8
11 20.01 С 10 н/о н/о -17.5 -19.0 88 -30 -30 1008.1 944.5
10 20.01 С 10 н/о н/о -17.8 -19.3 88 -31 -31 опасность
обморожения
1007.7 944.1
12 20.01 С 11-12
{12}
н/о н/о -17.1 -18.5 89 -30 -30 1008.2 944.8
13 20.01 С 12 н/о н/о -16.9 -18.4 88 -30 -30 1008.7 945.3
14 20.01 С 10 н/о н/о -15.7 -17.0 90 -28 -28 1009.1 945.9
15 20.01 С 11-13
{13}
н/о н/о -15.2 -16.4 91 -28 -28 1009.0 946.0
17 20.01 С 10 н/о н/о -14.3 -15.5 91 -26 -26 1009.5 946.6
16 20.01 С 12 н/о н/о -16.1 -17.5 89 -29 -29 1009.7 946.4
18 20.01 С 11-11
{12}
н/о н/о -13.1 -14.2 91 -25 -25 1009.4 946.8 -18.1 -13.0
19 20.01 С 8 н/о н/о -13.5 -14.7 91 -24 -24 1009.8 947.0
20 20.01 С 7 н/о н/о -13.4 -14.6 91 -23 -23 1010.2 947.4
21 20.01 С 4-5
{7}
н/о н/о -11.9 -12.9 92 -19 -19 1010.1 947.8
23 20.01 СЗ 5 н/о н/о -12.1 -13.1 92 -20 -20 1010.6 948.2
22 20.01 С 4 н/о н/о -12.3 -13.3 92 -19 -19 1010.5 948.0
00 21.01 СЗ 6-7
{7}
н/о н/о -12.6 -13.6 92 -22 -22 1010.7 948.1
01 21.01 СЗ 7-8
{8}
н/о н/о -13.0 -14.1 91 -23 -23 1010.7 948.1
02 21.01 З 8-9
{9}
н/о н/о -12.8 -13.8 92 -23 -23 1010.5 947.9
03 21.01 З 10-11
{11}
н/о н/о -13.2 -14.5 90 -25 -25 1010.3 947.6
05 21.01 З 11-12
{12}
н/о н/о -13.8 -15.2 89 -26 -26 1009.7 946.9
04 21.01 З 11-11
{12}
н/о н/о -12.8 -14.2 89 -25 -25 1009.8 947.2
06 21.01 З 10-11
{12}
н/о н/о -14.2 -15.7 88 -26 -26 1009.6 946.8 -15.0 -11.6
07 21.01 З 10 н/о н/о -15.5 -17.0 88 -28 -28 1010.1 946.9
08 21.01 СЗ 10 н/о н/о -15.3 -17.0 87 -27 -27 1010.1 947.0
09 21.01 СЗ 11-12
{13}
н/о н/о -15.4 -17.1 87 -28 -28 1010.4 947.2
11 21.01 СЗ 9 н/о н/о -15.4 -17.0 88 -27 -27 1010.2 947.0
10 21.01 СЗ 9 н/о н/о -15.3 -17.0 87 -27 -27 1010.4 947.2
12 21.01 СЗ 9-10
{10}
н/о н/о -16.6 -18.0 89 -29 -29 1010.1 946.6
13 21.01 СЗ 10 н/о н/о -17.1 -18.3 90 -30 -30 1010.0 946.4
14 21.01 СЗ 10 н/о н/о -17.0 -18.4 89 -30 -30 1009.7 946.1
15 21.01 СЗ 12-12
{12}
н/о н/о -16.8 -18.2 89 -30 -30 1009.6 946.1
17 21.01 СЗ 13 н/о н/о -15.7 -17.1 89 -29 -29 1009.1 945.9
16 21.01 СЗ 10 н/о н/о -16.5 -17.8 90 -29 -29 1009.5 946.1
18 21.01 СЗ 15-16
{17}
н/о н/о -15.5 -16.8 90 -30 -30 1008.7 945.6 -17.4 -14.2
19 21.01 СЗ 15 н/о н/о -15.5 -16.8 90 -30 -30 1008.6 945.5
20 21.01 СЗ 14 н/о н/о -14.9 -16.1 91 -29 -29 1008.1 945.1
21 21.01 СЗ 15-16
{17}
н/о н/о -14.2 -15.4 91 -28 -28 1007.9 945.2
23 21.01 СЗ 11 н/о н/о -15.2 -16.5 90 -28 -28 1008.7 945.6
22 21.01 СЗ 12 н/о н/о -15.2 -16.5 90 -28 -28 1008.6 945.5
00 22.01 СЗ 11-13
{13}
н/о н/о -15.1 -16.3 91 -28 -28 1008.7 945.7
01 22.01 СЗ 12 н/о н/о -13.4 -14.4 92 -26 -26 1008.3 945.7
02 22.01 СЗ 12 н/о н/о -13.6 -14.7 91 -26 -26 1008.4 945.8
03 22.01 СЗ 9-10
{12}
н/о н/о -12.0 -13.0 92 -23 -23 1007.8 945.5
05 22.01 З 8 н/о н/о -10.9 -11.7 94 -21 -21 1007.1 945.2
04 22.01 СЗ 8 н/о н/о -11.4 -12.2 94 -21 -21 1007.5 945.5
06 22.01 З 10-10
{11}
н/о н/о -9.0 -9.7 95 -20 -20 1006.1 944.6 -15.7 -9.0
07 22.01 З 15 н/о н/о -9.3 -10.0 95 -22 -22 1004.9 943.5
08 22.01 З 20 н/о н/о -9.7 -11.8 85 -24 -24 1003.6 942.1
09 22.01 З 22-24
{25}
н/о н/о -10.1 -12.8 81 -24 -24 1003.0 941.5
11 22.01 З 13 н/о н/о -12.4 -13.5 91 -25 -25 1004.1 942.0
10 22.01 З 16 н/о н/о -11.6 -13.0 89 -25 -25 1004.0 942.0
12 22.01 СЗ 10-12
{13}
н/о н/о -13.4 -14.4 92 -25 -25 1004.5 942.1
13 22.01 СЗ 9 н/о н/о -13.7 -14.9 91 -25 -25 1004.7 942.3
14 22.01 СЗ 8 н/о н/о -14.0 -15.1 91 -25 -25 1005.0 942.5
15 22.01 СЗ 8-9
{10}
н/о н/о -15.2 -16.5 90 -26 -26 1005.4 942.6
17 22.01 С 11 н/о н/о -15.3 -16.6 90 -28 -28 1005.9 943.0
16 22.01 СЗ 9 н/о н/о -15.3 -16.5 90 -27 -27 1005.7 942.8
18 22.01 СЗ 8-9
{11}
н/о н/о -14.8 -16.0 91 -26 -26 1006.0 943.3 -15.4 -8.9
19 22.01 СЗ 8 н/о н/о -13.9 -15.0 91 -24 -24 1005.9 943.3
20 22.01 СЗ 8 н/о н/о -13.6 -14.7 91 -24 -24 1005.8 943.3
21 22.01 СЗ 10-11
{11}
н/о н/о -13.3 -14.4 91 -25 -25 1006.2 943.7
23 22.01 СЗ 9 н/о н/о -13.5 -14.6 91 -24 -24 1006.2 943.7
22 22.01 СЗ 9 н/о н/о -13.1 -14.1 92 -24 -24 1006.1 943.8
00 23.01 СЗ 10-11
{11}
н/о н/о -14.4 -15.5 91 -26 -26 1006.6 943.9
01 23.01 СЗ 11 н/о н/о -14.9 -16.1 91 -27 -27 1006.6 943.8
02 23.01 СЗ 9 н/о н/о -14.9 -16.1 91 -26 -26 1006.5 943.7
03 23.01 С 11-14
{14}
н/о н/о -15.4 -16.7 90 -28 -28 1007.2 944.2
05 23.01 С 10 н/о н/о -15.7 -17.0 90 -28 -28 1008.0 944.9
04 23.01 С 10 н/о н/о -15.2 -16.5 90 -27 -27 1007.6 944.6
06 23.01 С 11-12
{12}
н/о н/о -16.1 -17.5 89 -29 -29 1009.1 945.8 -16.2 -13.1
07 23.01 СЗ 3 н/о н/о -15.1 -16.4 90 -22 -22 1009.5 946.4
08 23.01 СВ 2 н/о н/о -13.2 -14.1 93 -18 -18 1009.8 947.2
09 23.01 С 7-10
{10}
н/о н/о -12.5 -13.4 93 -22 -22 1010.5 948.0
11 23.01 С 9 н/о н/о -12.4 -13.4 92 -23 -23 1011.6 949.0
10 23.01 С 9 н/о н/о -12.2 -13.2 92 -23 -23 1010.9 948.5
12 23.01 -10
{11}
н/о н/о -13.9 -15.2 90 1012.6 949.7
13 23.01 С 10 н/о н/о -14.5 -15.7 91 -26 -26 1013.4 950.2
14 23.01 С 9 н/о н/о -12.9 -13.9 92 -24 -24 1013.4 950.6
15 23.01 С 11-12
{12}
н/о н/о -14.0 -15.2 91 -26 -26 1014.0 951.0
17 23.01 С 16 н/о н/о -14.2 -15.4 91 -28 -28 1014.3 951.1
16 23.01 С 14 н/о н/о -14.0 -15.2 91 -27 -27 1014.1 951.0
18 23.01 С 12-16
{16}
н/о н/о -14.0 -15.2 91 -27 -27 1015.2 952.0 -16.1 -12.1
19 23.01 С 11 н/о н/о -14.7 -15.8 91 -27 -27 1015.9 952.6
20 23.01 С 11 н/о н/о -13.5 -14.7 91 -25 -25 1016.2 953.1
21 23.01 С 8-10
{12}
н/о н/о -14.9 -16.1 91 -26 -26 1017.3 953.8

 

Местоположение метеостанции Пюхя (Финляндия): широта 67.02 долгота 27.22 высота над уровнем моря 491 м.

В архиве по умолчанию представлена погода в Пюхе за последнюю неделю. Архивные данные за месяц целиком и за предыдущие месяцы, начиная с января 2011 года, Вы можете получить, выбрав интересующий диапазон дат из раскрывающегося списка и нажав кнопку "Ввод!".


*Определитесь, кто Вы:
робот инопланетянин человек

Внимание! Время в таблицах - всемирное. Для получения местного времени необходимо прибавить поправку, которая равна 1 ч.

Смотрите также архив погоды в соседних городах и на ближайших метеорологических станциях:

Погода на Аэродроме Кемиярви (Финляндия) (33 км)
Погода в Соданкюля (Финляндия) (47 км)
Погода в Савукоски (Финляндия) (51 км)
Погода в Салле (Финляндия) (67 км)
Погода в Рованиеми Апукка (Финляндия) (72 км)
Погода в Рованиеми аэропорту (Финляндия) (80 км)
Погода в Салла Наруска (Финляндия) (86 км)
Погода в Рованиеми (Финляндия) (88 км)
Погода в Соданкила Локка (Финляндия) (92 км)
Погода в Куусамо Киутаконгас (Финляндия) (117 км)

Пояснения к столбцам:

Ветер - указаны скорость ветра в м/с - средняя за 10 мин, порывы в срок и между сроками (в фигурных скобках) и направление, откуда дует ветер: С - северный, СВ - северо-восточный, В - восточный, ЮВ - юго-восточный, Ю - южный, ЮЗ - юго-западный, З - западный, СЗ - северо-западный.
Видимость - горизонтальная дальность видимости в метрах или километрах. При видимости от 1 до 10 км при отсутствии осадков обычно наблюдается дымка, при ухудшении видимости до 1 км и менее - туман. В сухую погоду видимость может ухудшаться дымом, пылью или мглою.
Явления - указаны атмосферные явления, наблюдавшиеся в срок или в последний час перед сроком; фигурными скобками обозначены явления, наблюдавшиеся между сроками (за 1-3 часа до срока); квадратными скобками обозначены град или гололедные отложения с указанием их диаметра в мм.
Облачность - указаны через наклонную черту общая и нижняя облачность в баллах и высота нижней границы облаков в метрах; квадратными скобками обозначены формы облаков: Ci - перистые, Cs - перисто-слоистые, Cc - перисто-кучевые, Ac - высококучевые, As - высокослоистые, Sc - слоисто-кучевые, Ns - слоисто-дождевые, Cu - кучевые, Cb - кучево-дождевые. Подробнее классификацию облаков см. в Атласе облаков (PDF).
T - Температура воздуха - температура, измеренная на высоте 2 м над землей.
Td - Температура точки росы - температура, при понижении до которой содержащийся в воздухе водяной пар достигнет насыщения.
f - Относительная влажность воздуха - влажноcть воздуха, измеренная на высоте 2 м над землей.
Te - Эффективная температура - температура, которую ощущает одетый по сезону человек в тени. Характеристика душности погоды. При расчете учитывается влияние влажности воздуха и скорости ветра на теплоощущения человека.
Tes - Эффективная температура на солнце - температура, которую ощущает человек, с поправкой на солнечный нагрев. Характеристика знойности погоды. Зависит от высоты солнца над горизонтом, облачности и скорости ветра. Ночью, в пасмурную погоду, а также при ветре 12 м/с и более поправка равна нулю.
P - Атмосферное давление - приведенное к уровню моря атмосферное давление.
Po - Атмосферное давление - измеренное на уровне метеостанции атмосферное давление.
Tmin - Минимальная температура - минимум температуры воздуха на высоте 2 м над землей.
Tmax - Максимальная температура - максимум температуры воздуха на высоте 2 м над землей.
R - Количество осадков - Количество выпавших осадков за период времени, мм. При наведении курсора мыши на число - период времени, за который выпало указанное количество осадков.
R24 - Количество осадков - Количество выпавших осадков за 24 часа, мм.
S - Снежный покров - Высота снежного покрова, см. При наведении курсора мыши на число - состояние снежного покрова и степень покрытия местности в баллах.